Home > Weather > Cuiabá > Past weeks

Flag for Brazil Weather for the Past 2 Weeks in Cuiabá, Mato Grosso, Brazil

Now
79 °F

Sunny.


Feels Like: 81 °F
Forecast: 67 / 91 °F
Wind: 6 mph from Southwest

Location: Cuiaba Aeroporto

Current Time: May 3, 2016 at 9:23:25 AM

Latest Report: May 3, 2016 at 9:00 AM


Visibility: 10 mi

Pressure: 30.07 "Hg

Humidity: 65%

Dew Point: 66 °F

Location of CuiabáLocation

Historic Weather in Cuiabá — Graph

°F

Cuiabá Temperature Yesterday

Maximum temperature yesterday: 90 °F (at 3:00 PM)
Minimum temperature yesterday: 64 °F (at 3:00 AM)
Average temperature yesterday: 76 °F

High & Low Weather Summary for the Past Weeks

 TemperatureHumidityPressure
High97 °F (Apr 18, 1:00 PM)94% (Apr 23, 2:00 AM)30.18 "Hg (Apr 23, 2:00 AM)
Low57 °F (Apr 27, 8:00 PM)22% (Apr 18, 3:00 PM)29.71 "Hg (Apr 25, 4:00 PM)
Average77 °F68%29.95 "Hg
* Reported Apr 18 8:00 AM — May 3 8:00 AM, Cuiabá, Weather by CustomWeather, © 2016

Note: Actual official high and low records may vary slightly from our data, if they occured in-between our weather recording intervals... More about our weather records

Advertising

Cuiabá Weather History for the Previous 24 Hours

Scroll right to see more
 ConditionsComfort  
Time TempWeatherWind HumidityBarometerVisibility
8:00 AM
Tue, May 3
75 °FSunny.8 mph78%30.07 "Hg10 mi
7:00 AM72 °FSunny.3 mph83%30.04 "Hg10 mi
6:00 AM68 °FSunny.2 mph88%30.01 "Hg10 mi
5:00 AM72 °FClear.2 mph78%30.01 "Hg10 mi
4:00 AM70 °FClear.3 mph83%29.98 "Hg10 mi
3:00 AM70 °FClear.2 mph83%30.01 "Hg10 mi
2:00 AM72 °FClear.2 mph78%30.01 "Hg10 mi
1:00 AM70 °FClear.No wind88%30.01 "Hg10 mi
12:00 AM72 °FClear.2 mph83%30.04 "Hg10 mi
11:00 PM
Mon, May 2
72 °FClear.2 mph88%30.04 "Hg10 mi
10:00 PM75 °FClear.5 mph74%30.01 "Hg10 mi
9:00 PM75 °FClear.2 mph74%30.01 "Hg10 mi
8:00 PM75 °FClear.3 mph74%30.01 "Hg10 mi
7:00 PM77 °FClear.3 mph69%29.98 "Hg10 mi
6:00 PM81 °FClear.5 mph62%29.98 "Hg10 mi
5:00 PM86 °FSunny.5 mph49%29.95 "Hg10 mi
4:00 PM88 °FSunny.6 mph46%29.95 "Hg10 mi
3:00 PM90 °FSunny.5 mph41%29.95 "Hg10 mi
2:00 PM88 °FSunny.6 mph46%29.95 "Hg10 mi
1:00 PM88 °FSunny.6 mph43%29.98 "Hg10 mi
12:00 PM86 °FSunny.2 mph46%30.01 "Hg10 mi
11:00 AM82 °FSunny.5 mph55%30.04 "Hg10 mi
10:00 AM79 °FSunny.5 mph54%30.04 "Hg10 mi
9:00 AM73 °FSunny.5 mph61%30.04 "Hg10 mi
Weather by CustomWeather, © 2016

See weather overviewHow to use our weather pages